Terminal Aerodrome Forecast
Issued by NWS

Home | Current Version | Previous Version | Text Only | Print | Product List | Glossary On
Versions: 1 2 3 4 5 6 7 8 9 10 11 12 13 14
000
FTUS46 KPDT 231100
TAFALW
TAF
KALW 231137Z 2312/2412 12007KT P6SM BKN100
     FM231500 22007KT P6SM BKN120
     FM231800 24011G16KT P6SM SCT050 BKN100
     FM232200 24018G25KT P6SM VCTS SCT050CB BKN100 PROB30 2323/2404
      5SM -TSRA BKN060CB OVC100
     FM240600 20013KT P6SM VCSH SCT050 SCT100=

USA.gov is the U.S. government's official web portal to all federal, state and local government web resources and services.